[[{"header":{"parameterUnit":"m.s-1","parameterCategory":1,"la1":30.2991,"la2":30.254,"lo1":-89.0895,"lo2":-89.0444,"dy":0.0017,"dx":0.0017,"nx":28,"ny":28,"refTime":"2024-02-22T03:00:00:Z","depth":0,"parameterNumber":2,"parameterNumberName":"U-component_of_WINDS"},"data":[0,0,0,0,0,0,0,0,0,0,0,0,0,0,0,0,0,0,0,0,0,0,0,0,0,0,0,0,0,0,0,0,0,0,0,0,0,0,0,0,0,0,0,0,0,0,0,0,0,0,0,0,0,0,0,0,0,0,-0.736,-0.736,0,-0.7386,-0.7386,-0.7386,-0.7394,-0.7394,-0.7393,-0.7393,-0.7422,-0.7423,-0.7424,0,0,0,0,0,0,0,0,0,0,0,0,0,-0.7318,-0.7319,-0.736,-0.736,-0.736,-0.7386,-0.7386,-0.7386,-0.7394,-0.7394,-0.7393,-0.7393,-0.7422,-0.7423,-0.7424,0,0,0,0,0,0,0,0,0,0,0,0,0,-0.7339,-0.7319,-0.736,-0.7367,-0.7368,-0.7386,-0.7386,-0.7386,-0.7394,-0.7394,-0.7393,-0.7393,-0.7421,-0.7423,-0.7424,-0.7437,0,0,-0.7428,-0.7429,0,0,0,0,0,0,0,0,-0.7338,-0.7341,-0.7366,-0.7367,-0.7368,-0.7386,-0.7382,-0.7403,-0.7394,-0.7384,-0.7393,-0.7393,-0.741,-0.7413,-0.7418,-0.7438,-0.7439,-0.7428,-0.7429,-0.7429,-0.743,0,0,0,0,0,0,0,-0.7337,-0.734,-0.737,-0.7366,-0.7367,-0.737,-0.7372,-0.7386,-0.7398,-0.7385,-0.7385,-0.7388,-0.7411,-0.7417,-0.7419,-0.744,-0.7428,-0.7429,-0.743,-0.7431,-0.7472,-0.7472,0,0,0,0,0,0,-0.7334,-0.7339,-0.7369,-0.7371,-0.7352,-0.7371,-0.7374,-0.738,-0.7398,-0.74,-0.7389,-0.7389,-0.7414,-0.7417,-0.742,-0.7436,-0.7429,-0.7431,-0.7432,-0.7471,-0.7472,-0.7472,0,0,0,0,0,0,-0.7333,-0.7336,-0.7368,-0.7355,-0.7359,-0.7371,-0.7379,-0.7381,-0.7387,-0.7401,-0.7403,-0.7392,-0.7414,-0.7418,-0.7432,-0.7437,-0.7431,-0.7433,-0.7471,-0.7471,-0.7472,-0.7468,0,0,0,0,0,0,-0.7332,-0.7336,-0.7341,-0.7355,-0.736,-0.738,-0.7379,-0.7382,-0.7389,-0.7389,-0.7405,-0.7407,-0.7414,-0.743,-0.7434,-0.7439,-0.7434,-0.7471,-0.7471,-0.7472,-0.7467,-0.7468,-0.7468,0,0,0,0,0,-0.733,-0.7339,-0.7341,-0.7344,-0.7366,-0.738,-0.7383,-0.739,-0.7389,-0.7394,-0.7403,-0.7407,-0.7436,-0.7432,-0.7435,-0.7441,-0.747,-0.7471,-0.7472,-0.7467,-0.7468,-0.7468,0,0,0,0,0,0,-0.7325,-0.7341,-0.7343,-0.7357,-0.7367,-0.7381,-0.7387,-0.7391,-0.7402,-0.7402,-0.7412,-0.7415,-0.7429,-0.7437,-0.7432,-0.7454,-0.7453,-0.7455,-0.7449,-0.7449,-0.745,-0.7447,-0.7435,0,0,0,0,0,-0.7326,-0.7335,-0.7349,-0.7359,-0.7364,-0.7375,-0.7381,-0.7387,-0.7398,-0.7402,-0.7412,-0.7424,-0.7435,-0.7443,-0.7454,-0.7469,-0.7472,-0.7475,-0.7475,-0.7475,-0.7476,-0.7485,-0.7486,-0.7474,-0.7474,-0.7474,0,0,-0.7327,-0.7337,-0.7342,-0.7359,-0.7367,-0.7377,-0.7379,-0.7389,-0.7397,-0.7404,-0.7418,-0.7426,-0.7439,-0.7454,-0.746,-0.746,-0.748,-0.7476,-0.7476,-0.7477,-0.7485,-0.7486,-0.7487,-0.7474,-0.7474,-0.7474,0,0,-0.7334,-0.7342,-0.7352,-0.736,-0.7373,-0.738,-0.7382,-0.7396,-0.7401,-0.7415,-0.742,-0.7431,-0.745,-0.746,-0.7467,-0.7478,-0.7481,-0.7481,-0.7483,-0.7491,-0.7492,-0.7493,-0.7497,-0.7498,-0.7482,-0.7482,-0.7482,0,-0.7334,-0.7349,-0.7357,-0.7367,-0.7374,-0.738,-0.739,-0.7398,-0.7414,-0.742,-0.7419,-0.7444,-0.7454,-0.747,-0.7473,-0.7479,-0.7482,-0.7479,-0.7491,-0.7492,-0.7493,-0.7497,-0.7498,-0.7482,-0.7482,-0.7482,-0.7482,0,-0.7348,-0.7359,-0.7365,-0.738,-0.7388,-0.7398,-0.7408,-0.7415,-0.7419,-0.7427,-0.7441,-0.7453,-0.7466,-0.7471,-0.7476,-0.7488,-0.7488,-0.7489,-0.7488,-0.7494,-0.7498,-0.7499,-0.7482,-0.7482,-0.7482,-0.7482,0,0,-0.7353,-0.7371,-0.7374,-0.738,-0.7394,-0.7403,-0.7414,-0.7427,-0.7433,-0.7444,-0.7453,-0.747,-0.7471,-0.748,-0.7486,-0.7493,-0.75,-0.7493,-0.7494,-0.7494,-0.7515,-0.7514,-0.7515,-0.7503,-0.7503,-0.7504,-0.7514,0,-0.7362,-0.738,-0.7388,-0.7403,-0.7413,-0.7419,-0.7428,-0.7438,-0.7446,-0.7455,-0.7464,-0.7475,-0.7476,-0.7481,-0.7489,-0.7498,-0.7505,-0.7497,-0.7512,-0.7513,-0.7508,-0.7517,-0.7515,-0.7525,-0.7515,-0.7516,-0.7516,0,-0.7375,-0.7385,-0.7401,-0.7414,-0.7418,-0.7426,-0.7439,-0.7448,-0.746,-0.7465,-0.7474,-0.7479,-0.7492,-0.749,-0.7507,-0.7502,-0.7509,-0.7514,-0.7515,-0.7516,-0.7514,-0.7518,-0.7528,-0.7529,-0.7518,-0.7518,-0.7518,0,-0.7376,-0.7394,-0.7406,-0.7411,-0.7427,-0.7432,-0.7439,-0.7451,-0.7458,-0.7469,-0.7474,-0.7487,-0.7494,-0.7504,-0.7513,-0.7511,-0.753,-0.7529,-0.7534,-0.7534,-0.7538,-0.7537,-0.7548,-0.7542,-0.7542,-0.7542,-0.7542,0,-0.7385,-0.7395,-0.7407,-0.7414,-0.7425,-0.7433,-0.7444,-0.7452,-0.7462,-0.7471,-0.7478,-0.7487,-0.7498,-0.7509,-0.7516,-0.7529,-0.7532,-0.7537,-0.7539,-0.7536,-0.7535,-0.754,-0.754,-0.7543,-0.7543,-0.7543,-0.7542,0,-0.7389,-0.7397,-0.741,-0.7424,-0.7427,-0.7435,-0.7446,-0.7454,-0.7462,-0.7473,-0.7477,-0.7489,-0.7501,-0.7511,-0.7528,-0.7533,-0.7547,-0.7549,-0.7542,-0.7543,-0.7548,-0.7547,-0.7562,-0.7564,-0.7557,-0.7557,-0.7557,0,-0.7394,-0.7401,-0.7415,-0.7421,-0.7427,-0.7438,-0.7445,-0.7454,-0.7461,-0.7475,-0.7481,-0.7494,-0.7505,-0.7525,-0.7536,-0.7549,-0.7551,-0.7555,-0.7553,-0.755,-0.7551,-0.755,-0.7551,-0.7555,-0.7555,-0.7555,-0.7555,0,-0.7402,-0.7405,-0.7415,-0.7426,-0.7434,-0.7444,-0.7454,-0.7459,-0.7469,-0.7478,-0.749,-0.7498,-0.7515,-0.7528,-0.7542,-0.755,-0.7555,-0.7556,-0.7558,-0.7555,-0.7551,-0.7553,-0.7543,-0.7556,-0.7556,-0.7556,-0.7556,-0.7556,-0.7406,-0.7413,-0.7423,-0.7434,-0.7442,-0.7451,-0.7458,-0.7467,-0.7477,-0.749,-0.7495,-0.7508,-0.752,-0.7539,-0.7548,-0.7558,-0.7559,-0.7561,-0.7562,-0.7563,-0.7562,-0.7549,-0.7561,-0.7561,-0.7561,-0.7561,-0.7561,0,-0.7414,-0.7421,-0.7431,-0.7444,-0.7452,-0.7455,-0.7466,-0.7473,-0.7484,-0.7494,-0.7504,-0.7519,-0.7531,-0.7543,-0.7556,-0.7563,-0.7565,-0.7566,-0.7565,-0.7567,-0.7561,-0.7558,-0.7564,-0.7564,-0.7564,-0.7564,-0.7564,-0.7564,-0.7419,-0.743,-0.7435,-0.7451,-0.7458,-0.747,-0.7476,-0.7484,-0.7493,-0.7508,-0.7518,-0.7525,-0.7537,-0.7551,-0.7562,-0.7566,-0.757,-0.757,-0.7574,-0.7568,-0.7568,-0.7567,-0.7564,-0.7571,-0.7571,-0.7579,-0.7579,-0.7579]},{"header":{"parameterUnit":"m.s-1","parameterCategory":1,"la1":30.2991,"la2":30.254,"lo1":-89.0895,"lo2":-89.0444,"dy":0.0017,"dx":0.0017,"nx":28,"ny":28,"refTime":"2024-02-22T03:00:00:Z","depth":0,"parameterNumber":3,"parameterNumberName":"V-component_of_WINDS"},"data":[0,0,0,0,0,0,0,0,0,0,0,0,0,0,0,0,0,0,0,0,0,0,0,0,0,0,0,0,0,0,0,0,0,0,0,0,0,0,0,0,0,0,0,0,0,0,0,0,0,0,0,0,0,0,0,0,0,0,4.7181,4.7182,0,4.7295,4.7296,4.7297,4.7321,4.732,4.7319,4.7319,4.7429,4.7433,4.7437,0,0,0,0,0,0,0,0,0,0,0,0,0,4.6982,4.6986,4.7181,4.7183,4.7184,4.7294,4.7296,4.7298,4.7321,4.732,4.7319,4.7318,4.7428,4.7432,4.7437,0,0,0,0,0,0,0,0,0,0,0,0,0,4.7079,4.6987,4.7181,4.7209,4.7213,4.7294,4.7296,4.7298,4.7321,4.732,4.7319,4.7318,4.7427,4.7432,4.7438,4.7497,0,0,4.7455,4.7457,0,0,0,0,0,0,0,0,4.7074,4.7087,4.7204,4.7207,4.7212,4.7293,4.7267,4.7364,4.7322,4.728,4.7319,4.7317,4.7384,4.7393,4.7417,4.7502,4.7507,4.7455,4.7459,4.7461,4.7462,0,0,0,0,0,0,0,4.7067,4.7082,4.7226,4.7205,4.721,4.7215,4.7228,4.7285,4.7338,4.7284,4.7286,4.7299,4.7386,4.7412,4.742,4.7509,4.7455,4.746,4.7463,4.7466,4.7652,4.7653,0,0,0,0,0,0,4.7056,4.7076,4.7222,4.7229,4.7138,4.722,4.7234,4.7268,4.7337,4.7347,4.73,4.73,4.7403,4.7413,4.7424,4.7501,4.7461,4.7466,4.7469,4.765,4.7652,4.7654,0,0,0,0,0,0,4.7051,4.7069,4.7218,4.7153,4.7173,4.7225,4.7263,4.7271,4.7296,4.735,4.7359,4.7317,4.7402,4.7416,4.748,4.7505,4.7469,4.7474,4.7648,4.7651,4.7653,4.7654,0,0,0,0,0,0,4.7046,4.7067,4.709,4.7154,4.7176,4.7273,4.7264,4.7274,4.7306,4.7307,4.7368,4.7376,4.7402,4.7472,4.7486,4.7512,4.7478,4.7646,4.7649,4.7652,4.7652,4.7656,4.766,0,0,0,0,0,4.7038,4.7084,4.7092,4.7109,4.7207,4.7274,4.7287,4.7317,4.7308,4.7332,4.7367,4.7374,4.75,4.7478,4.7494,4.7522,4.7645,4.7648,4.7652,4.765,4.7655,4.7659,0,0,0,0,0,0,4.7019,4.7093,4.7102,4.7169,4.7216,4.7278,4.7309,4.7321,4.7369,4.7368,4.7402,4.7415,4.7478,4.7506,4.748,4.7586,4.7572,4.7579,4.7565,4.757,4.7574,4.7566,4.7483,0,0,0,0,0,4.7024,4.7073,4.7134,4.7188,4.7211,4.7256,4.7286,4.7307,4.7355,4.7374,4.7413,4.7458,4.7509,4.7541,4.7589,4.7656,4.767,4.7684,4.7687,4.769,4.7696,4.7737,4.7744,4.7666,4.7666,4.7665,0,0,4.7032,4.7078,4.7107,4.7185,4.7224,4.7274,4.7272,4.7324,4.7362,4.7381,4.7445,4.7476,4.7529,4.7595,4.7626,4.7621,4.7721,4.7695,4.7697,4.7701,4.7741,4.7749,4.7755,4.7668,4.7668,4.7667,0,0,4.7073,4.7112,4.7164,4.7203,4.7262,4.7292,4.7304,4.7366,4.7388,4.7453,4.7469,4.7514,4.7599,4.7637,4.7668,4.7728,4.7737,4.7742,4.7763,4.7802,4.7808,4.7814,4.7838,4.7845,4.7748,4.7748,4.7748,0,4.7076,4.7154,4.7187,4.7241,4.7276,4.7298,4.7351,4.7386,4.7457,4.7481,4.7474,4.7584,4.762,4.7698,4.7713,4.7736,4.7752,4.7736,4.7805,4.7811,4.7816,4.784,4.7848,4.7748,4.7748,4.7748,4.7748,0,4.7155,4.7209,4.7243,4.7315,4.7353,4.7405,4.7447,4.7482,4.7499,4.753,4.7598,4.7644,4.7704,4.7723,4.7739,4.7804,4.7799,4.7798,4.7785,4.7824,4.7846,4.7855,4.7749,4.7749,4.7748,4.7748,0,0,4.7186,4.7279,4.7291,4.7326,4.7394,4.7436,4.7489,4.7551,4.7581,4.763,4.7677,4.775,4.7751,4.7785,4.7806,4.784,4.7888,4.7835,4.7837,4.7846,4.7966,4.7968,4.7977,4.7894,4.7896,4.7898,4.7962,0,4.7238,4.7338,4.7371,4.7453,4.7505,4.7528,4.7575,4.7622,4.7653,4.7701,4.7734,4.7787,4.7782,4.7804,4.7839,4.7875,4.7913,4.787,4.7939,4.7941,4.7927,4.7989,4.799,4.8049,4.7971,4.7972,4.7973,0,4.7311,4.7365,4.7453,4.7519,4.7541,4.7583,4.7644,4.7689,4.7743,4.7764,4.7805,4.7824,4.7881,4.7865,4.7945,4.7916,4.7946,4.7968,4.7971,4.798,4.7961,4.8001,4.8068,4.8077,4.7987,4.7986,4.7985,0,4.7329,4.7422,4.7489,4.7517,4.7594,4.7623,4.7656,4.771,4.7746,4.7798,4.7822,4.7879,4.7911,4.7955,4.7989,4.7974,4.8068,4.8053,4.8087,4.8086,4.8107,4.8105,4.8181,4.8123,4.8122,4.8122,4.8122,0,4.7384,4.7437,4.7498,4.7539,4.76,4.7638,4.7698,4.7732,4.778,4.7827,4.7849,4.7893,4.7935,4.7985,4.8011,4.8076,4.8089,4.8108,4.8115,4.8107,4.8105,4.8128,4.8126,4.8125,4.8124,4.8124,4.8123,0,4.7414,4.7456,4.7531,4.7599,4.7617,4.766,4.7718,4.7759,4.7791,4.7852,4.7868,4.7919,4.7979,4.8018,4.8093,4.8111,4.8183,4.8187,4.8165,4.8169,4.8202,4.8199,4.8297,4.8312,4.8241,4.8241,4.8242,0,4.7447,4.749,4.7564,4.7599,4.7633,4.7688,4.7727,4.7766,4.7804,4.7872,4.7904,4.7966,4.8019,4.8113,4.8156,4.8215,4.8222,4.8253,4.8231,4.8223,4.8226,4.8224,4.823,4.8256,4.8257,4.8257,4.8258,0,4.7503,4.7523,4.7578,4.7641,4.7687,4.7738,4.7789,4.7816,4.7864,4.7906,4.797,4.801,4.809,4.8151,4.8215,4.8248,4.8262,4.8264,4.8276,4.8269,4.8256,4.8267,4.8177,4.8262,4.8262,4.8261,4.8261,4.8261,4.7537,4.7578,4.7638,4.7699,4.7742,4.779,4.7833,4.7873,4.7927,4.7997,4.8016,4.8083,4.8138,4.8225,4.826,4.8313,4.8309,4.8324,4.8329,4.8333,4.8335,4.8247,4.8324,4.8324,4.8323,4.8323,4.8323,0,4.7596,4.7637,4.7693,4.7766,4.7815,4.7826,4.7883,4.7923,4.7983,4.8034,4.8086,4.816,4.8221,4.8271,4.8334,4.8366,4.8375,4.8382,4.8381,4.8389,4.8333,4.8318,4.8375,4.8375,4.8375,4.8375,4.8374,4.8374,4.7633,4.7704,4.7731,4.7824,4.7863,4.7931,4.7964,4.8009,4.8051,4.8133,4.8185,4.8218,4.8269,4.8337,4.8394,4.8406,4.8429,4.8436,4.845,4.8398,4.8392,4.8387,4.8373,4.844,4.844,4.8502,4.8503,4.8503]}]]